User: anonymous   Login
Location: ?????????
(38.0736°N, 23.2119°E)
Time: 15:07:40
(UTC+00:00)
Language:

Cosmos 2219 Rocket - Orbit

View from above orbital plane
View from above orbital plane
View from above satellite
View from above satellite

Ground track
Ground track

The orbit data is extracted from the following two-line orbital elements,

1 22220U 92076B   24165.96003264  .00000311  00000-0  17942-3 0  9991
2 22220  71.0009  83.1417 0013679 332.3922 101.5714 14.16664626632070
Epoch (UTC): 13 June 2024 23:02:26
Eccentricity: 0.0013679
inclination: 71.0009°
perigee height: 827 km
apogee height: 846 km
right ascension of ascending node: 83.1417°
argument of perigee: 332.3922°
revolutions per day: 14.16664626
mean anomaly at epoch: 101.5714°
orbit number at epoch: 63207

The dashed part of the orbit path shows where the satellite is in the earth's shadow,  

DLR